segment_id,date_local,uptime,ped_lft,ped_rgt,ped_total,bike_lft,bike_rgt,bike_total,car_lft,car_rgt,car_total,heavy_lft,heavy_rgt,heavy_total,v85,car_speed0,car_speed10,car_speed20,car_speed30,car_speed40,car_speed50,car_speed60,car_speed70
100024661,2020-08-01 00:00,1.0,,,,157,144,301,,,,,,,
100024661,2020-08-01 01:00,1.0,,,,107,101,208,,,,,,,
100024661,2020-08-01 02:00,1.0,,,,60,72,132,,,,,,,
100024661,2020-08-01 03:00,1.0,,,,33,42,75,,,,,,,
100024661,2020-08-01 04:00,1.0,,,,22,23,45,,,,,,,
100024661,2020-08-01 05:00,1.0,,,,23,23,46,,,,,,,
100024661,2020-08-01 06:00,1.0,,,,20,21,41,,,,,,,
100024661,2020-08-01 07:00,1.0,,,,24,24,48,,,,,,,
100024661,2020-08-01 08:00,1.0,,,,57,66,123,,,,,,,
100024661,2020-08-01 09:00,1.0,,,,136,104,240,,,,,,,
100024661,2020-08-01 10:00,1.0,,,,219,212,431,,,,,,,
100024661,2020-08-01 11:00,1.0,,,,248,231,479,,,,,,,
100024661,2020-08-01 12:00,1.0,,,,282,246,528,,,,,,,
100024661,2020-08-01 13:00,1.0,,,,250,283,533,,,,,,,
100024661,2020-08-01 14:00,1.0,,,,266,331,597,,,,,,,
100024661,2020-08-01 15:00,1.0,,,,275,433,708,,,,,,,
100024661,2020-08-01 16:00,1.0,,,,235,337,572,,,,,,,
100024661,2020-08-01 17:00,1.0,,,,275,372,647,,,,,,,
100024661,2020-08-01 18:00,1.0,,,,303,394,697,,,,,,,
100024661,2020-08-01 19:00,1.0,,,,239,403,642,,,,,,,
100024661,2020-08-01 20:00,1.0,,,,223,291,514,,,,,,,
100024661,2020-08-01 21:00,1.0,,,,229,241,470,,,,,,,
100024661,2020-08-01 22:00,1.0,,,,181,199,380,,,,,,,
100024661,2020-08-01 23:00,1.0,,,,161,184,345,,,,,,,
100024661,2020-08-02 00:00,1.0,,,,147,165,312,,,,,,,
100024661,2020-08-02 01:00,1.0,,,,100,108,208,,,,,,,
100024661,2020-08-02 02:00,1.0,,,,60,48,108,,,,,,,
100024661,2020-08-02 03:00,1.0,,,,38,40,78,,,,,,,
100024661,2020-08-02 04:00,1.0,,,,21,25,46,,,,,,,
100024661,2020-08-02 05:00,1.0,,,,20,22,42,,,,,,,
100024661,2020-08-02 06:00,1.0,,,,30,26,56,,,,,,,
100024661,2020-08-02 07:00,1.0,,,,25,19,44,,,,,,,
100024661,2020-08-02 08:00,1.0,,,,44,35,79,,,,,,,
100024661,2020-08-02 09:00,1.0,,,,66,57,123,,,,,,,
100024661,2020-08-02 10:00,1.0,,,,106,125,231,,,,,,,
100024661,2020-08-02 11:00,1.0,,,,79,156,235,,,,,,,
100024661,2020-08-02 12:00,1.0,,,,75,97,172,,,,,,,
100024661,2020-08-02 13:00,1.0,,,,91,98,189,,,,,,,
100024661,2020-08-02 14:00,1.0,,,,98,121,219,,,,,,,
100024661,2020-08-02 15:00,1.0,,,,137,166,303,,,,,,,
100024661,2020-08-02 16:00,1.0,,,,142,158,300,,,,,,,
100024661,2020-08-02 17:00,1.0,,,,144,168,312,,,,,,,
100024661,2020-08-02 18:00,1.0,,,,163,209,372,,,,,,,
100024661,2020-08-02 19:00,1.0,,,,154,141,295,,,,,,,
100024661,2020-08-02 20:00,1.0,,,,133,131,264,,,,,,,
100024661,2020-08-02 21:00,1.0,,,,94,104,198,,,,,,,
100024661,2020-08-02 22:00,1.0,,,,71,76,147,,,,,,,
100024661,2020-08-02 23:00,1.0,,,,58,63,121,,,,,,,
100024661,2020-08-03 00:00,1.0,,,,24,34,58,,,,,,,
100024661,2020-08-03 01:00,1.0,,,,17,23,40,,,,,,,
100024661,2020-08-03 02:00,1.0,,,,11,11,22,,,,,,,
100024661,2020-08-03 03:00,1.0,,,,5,5,10,,,,,,,
100024661,2020-08-03 04:00,1.0,,,,13,13,26,,,,,,,
100024661,2020-08-03 05:00,1.0,,,,16,38,54,,,,,,,
100024661,2020-08-03 06:00,1.0,,,,57,120,177,,,,,,,
100024661,2020-08-03 07:00,1.0,,,,168,287,455,,,,,,,
100024661,2020-08-03 08:00,1.0,,,,417,700,1117,,,,,,,
100024661,2020-08-03 09:00,1.0,,,,411,557,968,,,,,,,
100024661,2020-08-03 10:00,1.0,,,,223,310,533,,,,,,,
100024661,2020-08-03 11:00,1.0,,,,218,230,448,,,,,,,
100024661,2020-08-03 12:00,1.0,,,,243,255,498,,,,,,,
100024661,2020-08-03 13:00,1.0,,,,285,288,573,,,,,,,
100024661,2020-08-03 14:00,1.0,,,,309,286,595,,,,,,,
100024661,2020-08-03 15:00,1.0,,,,428,383,811,,,,,,,
100024661,2020-08-03 16:00,1.0,,,,480,434,914,,,,,,,
100024661,2020-08-03 17:00,1.0,,,,660,546,1206,,,,,,,
100024661,2020-08-03 18:00,1.0,,,,715,663,1378,,,,,,,
100024661,2020-08-03 19:00,1.0,,,,498,569,1067,,,,,,,
100024661,2020-08-03 20:00,1.0,,,,275,355,630,,,,,,,
100024661,2020-08-03 21:00,1.0,,,,239,225,464,,,,,,,
100024661,2020-08-03 22:00,1.0,,,,164,185,349,,,,,,,
100024661,2020-08-03 23:00,1.0,,,,124,105,229,,,,,,,
100024661,2020-08-04 00:00,1.0,,,,56,67,123,,,,,,,
100024661,2020-08-04 01:00,1.0,,,,21,31,52,,,,,,,
100024661,2020-08-04 02:00,1.0,,,,17,11,28,,,,,,,
100024661,2020-08-04 03:00,1.0,,,,14,6,20,,,,,,,
100024661,2020-08-04 04:00,1.0,,,,10,11,21,,,,,,,
100024661,2020-08-04 05:00,1.0,,,,25,42,67,,,,,,,
100024661,2020-08-04 06:00,1.0,,,,78,142,220,,,,,,,
100024661,2020-08-04 07:00,1.0,,,,214,323,537,,,,,,,
100024661,2020-08-04 08:00,1.0,,,,497,824,1321,,,,,,,
100024661,2020-08-04 09:00,1.0,,,,524,684,1208,,,,,,,
100024661,2020-08-04 10:00,1.0,,,,268,339,607,,,,,,,
100024661,2020-08-04 11:00,1.0,,,,264,276,540,,,,,,,
100024661,2020-08-04 12:00,1.0,,,,308,286,594,,,,,,,
100024661,2020-08-04 13:00,1.0,,,,289,376,665,,,,,,,
100024661,2020-08-04 14:00,1.0,,,,374,338,712,,,,,,,
100024661,2020-08-04 15:00,1.0,,,,463,376,839,,,,,,,
100024661,2020-08-04 16:00,1.0,,,,549,503,1052,,,,,,,
100024661,2020-08-04 17:00,1.0,,,,686,623,1309,,,,,,,
100024661,2020-08-04 18:00,1.0,,,,845,835,1680,,,,,,,
100024661,2020-08-04 19:00,1.0,,,,569,638,1207,,,,,,,
100024661,2020-08-04 20:00,1.0,,,,339,386,725,,,,,,,
100024661,2020-08-04 21:00,1.0,,,,262,247,509,,,,,,,
100024661,2020-08-04 22:00,1.0,,,,220,247,467,,,,,,,
100024661,2020-08-04 23:00,1.0,,,,177,136,313,,,,,,,
100024661,2020-08-05 00:00,1.0,,,,92,89,181,,,,,,,
100024661,2020-08-05 01:00,1.0,,,,40,42,82,,,,,,,
100024661,2020-08-05 02:00,1.0,,,,19,14,33,,,,,,,
100024661,2020-08-05 03:00,1.0,,,,6,10,16,,,,,,,
100024661,2020-08-05 04:00,1.0,,,,4,14,18,,,,,,,
100024661,2020-08-05 05:00,1.0,,,,23,34,57,,,,,,,
100024661,2020-08-05 06:00,1.0,,,,65,144,209,,,,,,,
100024661,2020-08-05 07:00,1.0,,,,204,362,566,,,,,,,
100024661,2020-08-05 08:00,1.0,,,,531,877,1408,,,,,,,
100024661,2020-08-05 09:00,1.0,,,,510,665,1175,,,,,,,
100024661,2020-08-05 10:00,1.0,,,,300,311,611,,,,,,,
100024661,2020-08-05 11:00,1.0,,,,236,278,514,,,,,,,
100024661,2020-08-05 12:00,1.0,,,,309,301,610,,,,,,,
100024661,2020-08-05 13:00,1.0,,,,304,352,656,,,,,,,
100024661,2020-08-05 14:00,1.0,,,,368,381,749,,,,,,,
100024661,2020-08-05 15:00,1.0,,,,458,428,886,,,,,,,
100024661,2020-08-05 16:00,1.0,,,,524,498,1022,,,,,,,
100024661,2020-08-05 17:00,1.0,,,,742,643,1385,,,,,,,
100024661,2020-08-05 18:00,1.0,,,,820,814,1634,,,,,,,
100024661,2020-08-05 19:00,1.0,,,,540,630,1170,,,,,,,
100024661,2020-08-05 20:00,1.0,,,,365,415,780,,,,,,,
100024661,2020-08-05 21:00,1.0,,,,317,269,586,,,,,,,
100024661,2020-08-05 22:00,1.0,,,,264,258,522,,,,,,,
100024661,2020-08-05 23:00,1.0,,,,216,200,416,,,,,,,
100024661,2020-08-06 00:00,1.0,,,,105,129,234,,,,,,,
100024661,2020-08-06 01:00,1.0,,,,68,54,122,,,,,,,
100024661,2020-08-06 02:00,1.0,,,,24,21,45,,,,,,,
100024661,2020-08-06 03:00,1.0,,,,11,10,21,,,,,,,
100024661,2020-08-06 04:00,1.0,,,,6,14,20,,,,,,,
100024661,2020-08-06 05:00,1.0,,,,25,48,73,,,,,,,
100024661,2020-08-06 06:00,1.0,,,,67,141,208,,,,,,,
100024661,2020-08-06 07:00,1.0,,,,174,361,535,,,,,,,
100024661,2020-08-06 08:00,1.0,,,,501,835,1336,,,,,,,
100024661,2020-08-06 09:00,1.0,,,,527,654,1181,,,,,,,
100024661,2020-08-06 10:00,1.0,,,,307,330,637,,,,,,,
100024661,2020-08-06 11:00,1.0,,,,316,307,623,,,,,,,
100024661,2020-08-06 12:00,1.0,,,,292,309,601,,,,,,,
100024661,2020-08-06 13:00,1.0,,,,317,344,661,,,,,,,
100024661,2020-08-06 14:00,1.0,,,,352,354,706,,,,,,,
100024661,2020-08-06 15:00,1.0,,,,489,450,939,,,,,,,
100024661,2020-08-06 16:00,1.0,,,,515,427,942,,,,,,,
100024661,2020-08-06 17:00,1.0,,,,668,639,1307,,,,,,,
100024661,2020-08-06 18:00,1.0,,,,747,774,1521,,,,,,,
100024661,2020-08-06 19:00,1.0,,,,548,651,1199,,,,,,,
100024661,2020-08-06 20:00,1.0,,,,341,454,795,,,,,,,
100024661,2020-08-06 21:00,1.0,,,,329,294,623,,,,,,,
100024661,2020-08-06 22:00,1.0,,,,288,267,555,,,,,,,
100024661,2020-08-06 23:00,1.0,,,,239,187,426,,,,,,,
100024661,2020-08-07 00:00,1.0,,,,126,136,262,,,,,,,
100024661,2020-08-07 01:00,1.0,,,,59,63,122,,,,,,,
100024661,2020-08-07 02:00,1.0,,,,34,28,62,,,,,,,
100024661,2020-08-07 03:00,1.0,,,,10,20,30,,,,,,,
100024661,2020-08-07 04:00,1.0,,,,16,18,34,,,,,,,
100024661,2020-08-07 05:00,1.0,,,,24,52,76,,,,,,,
100024661,2020-08-07 06:00,1.0,,,,69,123,192,,,,,,,
100024661,2020-08-07 07:00,1.0,,,,163,318,481,,,,,,,
100024661,2020-08-07 08:00,1.0,,,,357,601,958,,,,,,,
100024661,2020-08-07 09:00,1.0,,,,448,503,951,,,,,,,
100024661,2020-08-07 10:00,1.0,,,,254,324,578,,,,,,,
100024661,2020-08-07 11:00,1.0,,,,275,295,570,,,,,,,
100024661,2020-08-07 12:00,1.0,,,,301,323,624,,,,,,,
100024661,2020-08-07 13:00,1.0,,,,343,368,711,,,,,,,
100024661,2020-08-07 14:00,1.0,,,,417,330,747,,,,,,,
100024661,2020-08-07 15:00,1.0,,,,471,384,855,,,,,,,
100024661,2020-08-07 16:00,1.0,,,,494,447,941,,,,,,,
100024661,2020-08-07 17:00,1.0,,,,499,488,987,,,,,,,
100024661,2020-08-07 18:00,1.0,,,,535,618,1153,,,,,,,
100024661,2020-08-07 19:00,1.0,,,,370,575,945,,,,,,,
100024661,2020-08-07 20:00,1.0,,,,304,436,740,,,,,,,
100024661,2020-08-07 21:00,1.0,,,,218,284,502,,,,,,,
100024661,2020-08-07 22:00,1.0,,,,231,201,432,,,,,,,
100024661,2020-08-07 23:00,1.0,,,,210,218,428,,,,,,,
100024661,2020-08-08 00:00,1.0,,,,189,186,375,,,,,,,
100024661,2020-08-08 01:00,1.0,,,,132,108,240,,,,,,,
100024661,2020-08-08 02:00,1.0,,,,73,81,154,,,,,,,
100024661,2020-08-08 03:00,1.0,,,,42,39,81,,,,,,,
100024661,2020-08-08 04:00,1.0,,,,28,23,51,,,,,,,
100024661,2020-08-08 05:00,1.0,,,,21,20,41,,,,,,,
100024661,2020-08-08 06:00,1.0,,,,31,25,56,,,,,,,
100024661,2020-08-08 07:00,1.0,,,,43,30,73,,,,,,,
100024661,2020-08-08 08:00,1.0,,,,91,79,170,,,,,,,
100024661,2020-08-08 09:00,1.0,,,,152,143,295,,,,,,,
100024661,2020-08-08 10:00,1.0,,,,198,217,415,,,,,,,
100024661,2020-08-08 11:00,1.0,,,,238,193,431,,,,,,,
100024661,2020-08-08 12:00,1.0,,,,229,252,481,,,,,,,
100024661,2020-08-08 13:00,1.0,,,,224,207,431,,,,,,,
100024661,2020-08-08 14:00,1.0,,,,232,216,448,,,,,,,
100024661,2020-08-08 15:00,1.0,,,,205,266,471,,,,,,,
100024661,2020-08-08 16:00,1.0,,,,212,333,545,,,,,,,
100024661,2020-08-08 17:00,1.0,,,,213,319,532,,,,,,,
100024661,2020-08-08 18:00,1.0,,,,240,315,555,,,,,,,
100024661,2020-08-08 19:00,1.0,,,,183,325,508,,,,,,,
100024661,2020-08-08 20:00,1.0,,,,192,317,509,,,,,,,
100024661,2020-08-08 21:00,1.0,,,,164,212,376,,,,,,,
100024661,2020-08-08 22:00,1.0,,,,160,205,365,,,,,,,
100024661,2020-08-08 23:00,1.0,,,,166,189,355,,,,,,,
100024661,2020-08-09 00:00,1.0,,,,142,173,315,,,,,,,
100024661,2020-08-09 01:00,1.0,,,,125,120,245,,,,,,,
100024661,2020-08-09 02:00,1.0,,,,85,60,145,,,,,,,
100024661,2020-08-09 03:00,1.0,,,,43,47,90,,,,,,,
100024661,2020-08-09 04:00,1.0,,,,23,18,41,,,,,,,
100024661,2020-08-09 05:00,1.0,,,,16,30,46,,,,,,,
100024661,2020-08-09 06:00,1.0,,,,30,23,53,,,,,,,
100024661,2020-08-09 07:00,1.0,,,,29,28,57,,,,,,,
100024661,2020-08-09 08:00,1.0,,,,47,50,97,,,,,,,
100024661,2020-08-09 09:00,1.0,,,,89,96,185,,,,,,,
100024661,2020-08-09 10:00,1.0,,,,124,128,252,,,,,,,
100024661,2020-08-09 11:00,1.0,,,,131,139,270,,,,,,,
100024661,2020-08-09 12:00,1.0,,,,164,148,312,,,,,,,
100024661,2020-08-09 13:00,1.0,,,,156,173,329,,,,,,,
100024661,2020-08-09 14:00,1.0,,,,139,194,333,,,,,,,
100024661,2020-08-09 15:00,1.0,,,,148,184,332,,,,,,,
100024661,2020-08-09 16:00,1.0,,,,170,221,391,,,,,,,
100024661,2020-08-09 17:00,1.0,,,,183,271,454,,,,,,,
100024661,2020-08-09 18:00,1.0,,,,204,281,485,,,,,,,
100024661,2020-08-09 19:00,1.0,,,,217,286,503,,,,,,,
100024661,2020-08-09 20:00,1.0,,,,138,187,325,,,,,,,
100024661,2020-08-09 21:00,1.0,,,,106,134,240,,,,,,,
100024661,2020-08-09 22:00,1.0,,,,109,133,242,,,,,,,
100024661,2020-08-09 23:00,1.0,,,,71,73,144,,,,,,,
100024661,2020-08-10 00:00,1.0,,,,48,55,103,,,,,,,
100024661,2020-08-10 01:00,1.0,,,,21,21,42,,,,,,,
100024661,2020-08-10 02:00,1.0,,,,16,17,33,,,,,,,
100024661,2020-08-10 03:00,1.0,,,,9,8,17,,,,,,,
100024661,2020-08-10 04:00,1.0,,,,13,10,23,,,,,,,
100024661,2020-08-10 05:00,1.0,,,,24,50,74,,,,,,,
100024661,2020-08-10 06:00,1.0,,,,96,146,242,,,,,,,
100024661,2020-08-10 07:00,1.0,,,,241,448,689,,,,,,,
100024661,2020-08-10 08:00,1.0,,,,478,896,1374,,,,,,,
100024661,2020-08-10 09:00,1.0,,,,473,626,1099,,,,,,,
100024661,2020-08-10 10:00,1.0,,,,258,313,571,,,,,,,
100024661,2020-08-10 11:00,1.0,,,,246,281,527,,,,,,,
100024661,2020-08-10 12:00,1.0,,,,291,310,601,,,,,,,
100024661,2020-08-10 13:00,1.0,,,,295,308,603,,,,,,,
100024661,2020-08-10 14:00,1.0,,,,362,337,699,,,,,,,
100024661,2020-08-10 15:00,1.0,,,,466,411,877,,,,,,,
100024661,2020-08-10 16:00,1.0,,,,522,423,945,,,,,,,
100024661,2020-08-10 17:00,1.0,,,,596,535,1131,,,,,,,
100024661,2020-08-10 18:00,1.0,,,,676,617,1293,,,,,,,
100024661,2020-08-10 19:00,1.0,,,,431,505,936,,,,,,,
100024661,2020-08-10 20:00,1.0,,,,266,321,587,,,,,,,
100024661,2020-08-10 21:00,1.0,,,,196,206,402,,,,,,,
100024661,2020-08-10 22:00,1.0,,,,172,158,330,,,,,,,
100024661,2020-08-10 23:00,1.0,,,,133,125,258,,,,,,,
100024661,2020-08-11 00:00,1.0,,,,58,88,146,,,,,,,
100024661,2020-08-11 01:00,1.0,,,,30,26,56,,,,,,,
100024661,2020-08-11 02:00,1.0,,,,7,20,27,,,,,,,
100024661,2020-08-11 03:00,1.0,,,,8,10,18,,,,,,,
100024661,2020-08-11 04:00,1.0,,,,10,12,22,,,,,,,
100024661,2020-08-11 05:00,1.0,,,,25,52,77,,,,,,,
100024661,2020-08-11 06:00,1.0,,,,69,187,256,,,,,,,
100024661,2020-08-11 07:00,1.0,,,,279,472,751,,,,,,,
100024661,2020-08-11 08:00,1.0,,,,520,960,1480,,,,,,,
100024661,2020-08-11 09:00,1.0,,,,518,682,1200,,,,,,,
100024661,2020-08-11 10:00,1.0,,,,300,332,632,,,,,,,
100024661,2020-08-11 11:00,1.0,,,,267,265,532,,,,,,,
100024661,2020-08-11 12:00,1.0,,,,296,297,593,,,,,,,
100024661,2020-08-11 13:00,1.0,,,,281,322,603,,,,,,,
100024661,2020-08-11 14:00,1.0,,,,413,381,794,,,,,,,
100024661,2020-08-11 15:00,1.0,,,,503,423,926,,,,,,,
100024661,2020-08-11 16:00,1.0,,,,583,484,1067,,,,,,,
100024661,2020-08-11 17:00,1.0,,,,683,633,1316,,,,,,,
100024661,2020-08-11 18:00,1.0,,,,792,835,1627,,,,,,,
100024661,2020-08-11 19:00,1.0,,,,552,662,1214,,,,,,,
100024661,2020-08-11 20:00,1.0,,,,328,420,748,,,,,,,
100024661,2020-08-11 21:00,1.0,,,,261,258,519,,,,,,,
100024661,2020-08-11 22:00,1.0,,,,255,219,474,,,,,,,
100024661,2020-08-11 23:00,1.0,,,,188,175,363,,,,,,,
100024661,2020-08-12 00:00,1.0,,,,90,110,200,,,,,,,
100024661,2020-08-12 01:00,1.0,,,,45,61,106,,,,,,,
100024661,2020-08-12 02:00,1.0,,,,24,23,47,,,,,,,
100024661,2020-08-12 03:00,1.0,,,,20,10,30,,,,,,,
100024661,2020-08-12 04:00,1.0,,,,6,16,22,,,,,,,
100024661,2020-08-12 05:00,1.0,,,,22,61,83,,,,,,,
100024661,2020-08-12 06:00,1.0,,,,100,178,278,,,,,,,
100024661,2020-08-12 07:00,1.0,,,,256,480,736,,,,,,,
100024661,2020-08-12 08:00,1.0,,,,530,912,1442,,,,,,,
100024661,2020-08-12 09:00,1.0,,,,546,713,1259,,,,,,,
100024661,2020-08-12 10:00,1.0,,,,292,361,653,,,,,,,
100024661,2020-08-12 11:00,1.0,,,,251,300,551,,,,,,,
100024661,2020-08-12 12:00,1.0,,,,318,327,645,,,,,,,
100024661,2020-08-12 13:00,1.0,,,,349,368,717,,,,,,,
100024661,2020-08-12 14:00,1.0,,,,395,348,743,,,,,,,
100024661,2020-08-12 15:00,1.0,,,,457,399,856,,,,,,,
100024661,2020-08-12 16:00,1.0,,,,587,493,1080,,,,,,,
100024661,2020-08-12 17:00,1.0,,,,672,676,1348,,,,,,,
100024661,2020-08-12 18:00,1.0,,,,821,827,1648,,,,,,,
100024661,2020-08-12 19:00,1.0,,,,554,694,1248,,,,,,,
100024661,2020-08-12 20:00,1.0,,,,357,429,786,,,,,,,
100024661,2020-08-12 21:00,1.0,,,,311,288,599,,,,,,,
100024661,2020-08-12 22:00,1.0,,,,268,245,513,,,,,,,
100024661,2020-08-12 23:00,1.0,,,,196,197,393,,,,,,,
100024661,2020-08-13 00:00,1.0,,,,127,135,262,,,,,,,
100024661,2020-08-13 01:00,1.0,,,,64,51,115,,,,,,,
100024661,2020-08-13 02:00,1.0,,,,23,27,50,,,,,,,
100024661,2020-08-13 03:00,1.0,,,,14,18,32,,,,,,,
100024661,2020-08-13 04:00,1.0,,,,16,12,28,,,,,,,
100024661,2020-08-13 05:00,1.0,,,,27,58,85,,,,,,,
100024661,2020-08-13 06:00,1.0,,,,79,178,257,,,,,,,
100024661,2020-08-13 07:00,1.0,,,,272,449,721,,,,,,,
100024661,2020-08-13 08:00,1.0,,,,510,958,1468,,,,,,,
100024661,2020-08-13 09:00,1.0,,,,481,670,1151,,,,,,,
100024661,2020-08-13 10:00,1.0,,,,298,361,659,,,,,,,
100024661,2020-08-13 11:00,1.0,,,,284,269,553,,,,,,,
100024661,2020-08-13 12:00,1.0,,,,319,331,650,,,,,,,
100024661,2020-08-13 13:00,1.0,,,,338,334,672,,,,,,,
100024661,2020-08-13 14:00,1.0,,,,421,384,805,,,,,,,
100024661,2020-08-13 15:00,1.0,,,,501,455,956,,,,,,,
100024661,2020-08-13 16:00,1.0,,,,526,483,1009,,,,,,,
100024661,2020-08-13 17:00,1.0,,,,682,612,1294,,,,,,,
100024661,2020-08-13 18:00,1.0,,,,800,822,1622,,,,,,,
100024661,2020-08-13 19:00,1.0,,,,482,627,1109,,,,,,,
100024661,2020-08-13 20:00,1.0,,,,357,388,745,,,,,,,
100024661,2020-08-13 21:00,1.0,,,,262,265,527,,,,,,,
100024661,2020-08-13 22:00,1.0,,,,278,229,507,,,,,,,
100024661,2020-08-13 23:00,1.0,,,,189,200,389,,,,,,,
100024661,2020-08-14 00:00,1.0,,,,114,112,226,,,,,,,
100024661,2020-08-14 01:00,1.0,,,,71,40,111,,,,,,,
100024661,2020-08-14 02:00,1.0,,,,26,29,55,,,,,,,
100024661,2020-08-14 03:00,1.0,,,,10,13,23,,,,,,,
100024661,2020-08-14 04:00,1.0,,,,10,18,28,,,,,,,
100024661,2020-08-14 05:00,1.0,,,,26,44,70,,,,,,,
100024661,2020-08-14 06:00,1.0,,,,76,133,209,,,,,,,
100024661,2020-08-14 07:00,1.0,,,,225,359,584,,,,,,,
100024661,2020-08-14 08:00,1.0,,,,412,695,1107,,,,,,,
100024661,2020-08-14 09:00,1.0,,,,424,496,920,,,,,,,
100024661,2020-08-14 10:00,1.0,,,,235,278,513,,,,,,,
100024661,2020-08-14 11:00,1.0,,,,253,295,548,,,,,,,
100024661,2020-08-14 12:00,1.0,,,,337,324,661,,,,,,,
100024661,2020-08-14 13:00,1.0,,,,363,355,718,,,,,,,
100024661,2020-08-14 14:00,1.0,,,,387,382,769,,,,,,,
100024661,2020-08-14 15:00,1.0,,,,461,441,902,,,,,,,
100024661,2020-08-14 16:00,1.0,,,,476,460,936,,,,,,,
100024661,2020-08-14 17:00,1.0,,,,520,533,1053,,,,,,,
100024661,2020-08-14 18:00,1.0,,,,556,612,1168,,,,,,,
100024661,2020-08-14 19:00,1.0,,,,384,542,926,,,,,,,
100024661,2020-08-14 20:00,1.0,,,,315,376,691,,,,,,,
100024661,2020-08-14 21:00,1.0,,,,215,227,442,,,,,,,
100024661,2020-08-14 22:00,1.0,,,,174,205,379,,,,,,,
100024661,2020-08-14 23:00,1.0,,,,212,187,399,,,,,,,
100024661,2020-08-15 00:00,1.0,,,,147,172,319,,,,,,,
100024661,2020-08-15 01:00,1.0,,,,121,109,230,,,,,,,
100024661,2020-08-15 02:00,1.0,,,,71,64,135,,,,,,,
100024661,2020-08-15 03:00,1.0,,,,39,33,72,,,,,,,
100024661,2020-08-15 04:00,1.0,,,,18,24,42,,,,,,,
100024661,2020-08-15 05:00,1.0,,,,22,17,39,,,,,,,
100024661,2020-08-15 06:00,1.0,,,,23,29,52,,,,,,,
100024661,2020-08-15 07:00,1.0,,,,40,42,82,,,,,,,
100024661,2020-08-15 08:00,1.0,,,,75,81,156,,,,,,,
100024661,2020-08-15 09:00,1.0,,,,149,151,300,,,,,,,
100024661,2020-08-15 10:00,1.0,,,,190,218,408,,,,,,,
100024661,2020-08-15 11:00,1.0,,,,233,297,530,,,,,,,
100024661,2020-08-15 12:00,1.0,,,,252,277,529,,,,,,,
100024661,2020-08-15 13:00,1.0,,,,330,306,636,,,,,,,
100024661,2020-08-15 14:00,1.0,,,,327,332,659,,,,,,,
100024661,2020-08-15 15:00,1.0,,,,321,357,678,,,,,,,
100024661,2020-08-15 16:00,1.0,,,,300,410,710,,,,,,,
100024661,2020-08-15 17:00,1.0,,,,284,409,693,,,,,,,
100024661,2020-08-15 18:00,1.0,,,,317,422,739,,,,,,,
100024661,2020-08-15 19:00,1.0,,,,266,374,640,,,,,,,
100024661,2020-08-15 20:00,1.0,,,,222,356,578,,,,,,,
100024661,2020-08-15 21:00,1.0,,,,172,212,384,,,,,,,
100024661,2020-08-15 22:00,1.0,,,,189,207,396,,,,,,,
100024661,2020-08-15 23:00,1.0,,,,193,178,371,,,,,,,
100024661,2020-08-16 00:00,1.0,,,,149,125,274,,,,,,,
100024661,2020-08-16 01:00,1.0,,,,104,99,203,,,,,,,
100024661,2020-08-16 02:00,1.0,,,,93,57,150,,,,,,,
100024661,2020-08-16 03:00,1.0,,,,54,51,105,,,,,,,
100024661,2020-08-16 04:00,1.0,,,,25,34,59,,,,,,,
100024661,2020-08-16 05:00,1.0,,,,27,21,48,,,,,,,
100024661,2020-08-16 06:00,1.0,,,,10,25,35,,,,,,,
100024661,2020-08-16 07:00,1.0,,,,25,27,52,,,,,,,
100024661,2020-08-16 08:00,1.0,,,,66,52,118,,,,,,,
100024661,2020-08-16 09:00,1.0,,,,94,109,203,,,,,,,
100024661,2020-08-16 10:00,1.0,,,,136,123,259,,,,,,,
100024661,2020-08-16 11:00,1.0,,,,143,182,325,,,,,,,
100024661,2020-08-16 12:00,1.0,,,,145,191,336,,,,,,,
100024661,2020-08-16 13:00,1.0,,,,176,217,393,,,,,,,
100024661,2020-08-16 14:00,1.0,,,,204,266,470,,,,,,,
100024661,2020-08-16 15:00,1.0,,,,190,266,456,,,,,,,
100024661,2020-08-16 16:00,1.0,,,,186,251,437,,,,,,,
100024661,2020-08-16 17:00,1.0,,,,179,268,447,,,,,,,
100024661,2020-08-16 18:00,1.0,,,,230,277,507,,,,,,,
100024661,2020-08-16 19:00,1.0,,,,204,289,493,,,,,,,
100024661,2020-08-16 20:00,1.0,,,,206,275,481,,,,,,,
100024661,2020-08-16 21:00,1.0,,,,186,184,370,,,,,,,
100024661,2020-08-16 22:00,1.0,,,,142,134,276,,,,,,,
100024661,2020-08-16 23:00,1.0,,,,99,99,198,,,,,,,
100024661,2020-08-17 00:00,1.0,,,,55,70,125,,,,,,,
100024661,2020-08-17 01:00,1.0,,,,23,30,53,,,,,,,
100024661,2020-08-17 02:00,1.0,,,,10,11,21,,,,,,,
100024661,2020-08-17 03:00,1.0,,,,4,18,22,,,,,,,
100024661,2020-08-17 04:00,1.0,,,,7,14,21,,,,,,,
100024661,2020-08-17 05:00,1.0,,,,24,53,77,,,,,,,
100024661,2020-08-17 06:00,1.0,,,,89,160,249,,,,,,,
100024661,2020-08-17 07:00,1.0,,,,273,437,710,,,,,,,
100024661,2020-08-17 08:00,1.0,,,,490,979,1469,,,,,,,
100024661,2020-08-17 09:00,1.0,,,,444,635,1079,,,,,,,
100024661,2020-08-17 10:00,1.0,,,,228,316,544,,,,,,,
100024661,2020-08-17 11:00,1.0,,,,277,290,567,,,,,,,
100024661,2020-08-17 12:00,1.0,,,,279,306,585,,,,,,,
100024661,2020-08-17 13:00,1.0,,,,322,304,626,,,,,,,
100024661,2020-08-17 14:00,1.0,,,,363,343,706,,,,,,,
100024661,2020-08-17 15:00,1.0,,,,484,402,886,,,,,,,
100024661,2020-08-17 16:00,1.0,,,,573,493,1066,,,,,,,
100024661,2020-08-17 17:00,1.0,,,,646,605,1251,,,,,,,
100024661,2020-08-17 18:00,1.0,,,,784,746,1530,,,,,,,
100024661,2020-08-17 19:00,1.0,,,,487,529,1016,,,,,,,
100024661,2020-08-17 20:00,1.0,,,,349,409,758,,,,,,,
100024661,2020-08-17 21:00,1.0,,,,263,215,478,,,,,,,
100024661,2020-08-17 22:00,1.0,,,,173,174,347,,,,,,,
100024661,2020-08-17 23:00,1.0,,,,130,138,268,,,,,,,
100024661,2020-08-18 00:00,1.0,,,,69,74,143,,,,,,,
100024661,2020-08-18 01:00,1.0,,,,44,53,97,,,,,,,
100024661,2020-08-18 02:00,1.0,,,,10,11,21,,,,,,,
100024661,2020-08-18 03:00,1.0,,,,5,8,13,,,,,,,
100024661,2020-08-18 04:00,1.0,,,,9,13,22,,,,,,,
100024661,2020-08-18 05:00,1.0,,,,25,44,69,,,,,,,
100024661,2020-08-18 06:00,1.0,,,,82,144,226,,,,,,,
100024661,2020-08-18 07:00,1.0,,,,267,374,641,,,,,,,
100024661,2020-08-18 08:00,1.0,,,,512,931,1443,,,,,,,
100024661,2020-08-18 09:00,1.0,,,,335,524,859,,,,,,,
100024661,2020-08-18 10:00,1.0,,,,92,148,240,,,,,,,
100024661,2020-08-18 11:00,1.0,,,,137,137,274,,,,,,,
100024661,2020-08-18 12:00,1.0,,,,206,226,432,,,,,,,
100024661,2020-08-18 13:00,1.0,,,,285,258,543,,,,,,,
100024661,2020-08-18 14:00,1.0,,,,338,309,647,,,,,,,
100024661,2020-08-18 15:00,1.0,,,,454,402,856,,,,,,,
100024661,2020-08-18 16:00,1.0,,,,499,439,938,,,,,,,
100024661,2020-08-18 17:00,1.0,,,,632,554,1186,,,,,,,
100024661,2020-08-18 18:00,1.0,,,,730,662,1392,,,,,,,
100024661,2020-08-18 19:00,1.0,,,,493,563,1056,,,,,,,
100024661,2020-08-18 20:00,1.0,,,,302,322,624,,,,,,,
100024661,2020-08-18 21:00,1.0,,,,150,129,279,,,,,,,
100024661,2020-08-18 22:00,1.0,,,,166,152,318,,,,,,,
100024661,2020-08-18 23:00,1.0,,,,106,125,231,,,,,,,
100024661,2020-08-19 00:00,1.0,,,,49,53,102,,,,,,,
100024661,2020-08-19 01:00,1.0,,,,22,19,41,,,,,,,
100024661,2020-08-19 02:00,1.0,,,,11,13,24,,,,,,,
100024661,2020-08-19 03:00,1.0,,,,10,6,16,,,,,,,
100024661,2020-08-19 04:00,1.0,,,,9,19,28,,,,,,,
100024661,2020-08-19 05:00,1.0,,,,22,42,64,,,,,,,
100024661,2020-08-19 06:00,1.0,,,,79,154,233,,,,,,,
100024661,2020-08-19 07:00,1.0,,,,274,457,731,,,,,,,
100024661,2020-08-19 08:00,1.0,,,,555,1030,1585,,,,,,,
100024661,2020-08-19 09:00,1.0,,,,546,689,1235,,,,,,,
100024661,2020-08-19 10:00,1.0,,,,290,366,656,,,,,,,
100024661,2020-08-19 11:00,1.0,,,,279,302,581,,,,,,,
100024661,2020-08-19 12:00,1.0,,,,301,373,674,,,,,,,